Regional Weather Roundup
Issued by NWS

Home | Current Version | Previous Version | Graphics & Text | Print | Product List | Glossary On
Versions: 1 2 3 4 5 6 7 8 9 10 11 12 13 14 15 16 17 18 19 20 21 22 23 24 25 26 27
000
ASUS45 KCYS 300210
RWRWY

WYOMING REGIONAL WEATHER ROUNDUP
NATIONAL WEATHER SERVICE CHEYENNE WY
800 PM MDT THU SEP 29 2016

NOTE:  "FAIR" INDICATES FEW OR NO CLOUDS BELOW 12,000 FEET
WITH NO SIGNIFICANT WEATHER AND/OR OBSTRUCTIONS TO VISIBILITY.

WYZ001-300300-
YELLOWSTONE NATIONAL PARK

CITY           SKY/WX    TMP DP  RH WIND       PRES   REMARKS
LK YELLOWSTONE   N/A     49  44  83 CALM      30.39F
W YELLOWSTONE  NOT AVBL

$$
WYZ002>013-054>058-071-098>099-300300-
NORTHERN WYOMING

CITY           SKY/WX    TMP DP  RH WIND       PRES   REMARKS
JACKSON        PTCLDY    50  48  93 CALM      30.32F
CODY           LGT RAIN  57  49  74 W12G22    30.22R
GREYBULL       FAIR      69  48  47 E9        30.10R
WORLAND        FAIR      68  49  50 SE9       30.11R
SHERIDAN       FAIR      61  52  72 W6        30.07S
BUFFALO        FAIR      69  44  40 SW18G25   30.14S
GILLETTE       FAIR      68  48  48 S12       30.15S
HULETT         FAIR      73  43  33 S14       30.17R
NEWCASTLE      FAIR      70  41  35 E16G22    30.21R

$$
WYZ014>020-022>026-101>103-300300-
CENTRAL WYOMING

CITY           SKY/WX    TMP DP  RH WIND       PRES   REMARKS
BIG PINEY      CLOUDY    54  48  80 NE7       30.34R
PINEDALE       LGT RAIN  52  46  82 W7        30.35R
DUBOIS         CLOUDY    50  43  76 CALM      30.35S
LANDER         FAIR      64  46  52 CALM      30.21S
RIVERTON       FAIR      63  47  55 S9        30.20F
CASPER         CLOUDY    62  49  62 S10       30.26S
DOUGLAS        FAIR      63  44  50 N8        30.24S

$$
WYZ021-027>030-104>119-300300-
SOUTHERN WYOMING

CITY           SKY/WX    TMP DP  RH WIND       PRES   REMARKS
EVANSTON       CLOUDY    58  41  53 SW6       30.33S
FORT BRIDGER   FAIR      57  41  54 W6        30.36R
ROCK SPRINGS   FAIR      57  44  62 S14       30.32R
DIXON          MOCLDY    56  49  78 SE3       30.41S
RAWLINS        FAIR      55  45  68 S5        30.37S
SARATOGA       FAIR      52  45  76 SE9       30.39F
LARAMIE        FAIR      57  44  62 N6        30.39R
CHEYENNE       FAIR      65  38  36 E12       30.29S
TORRINGTON     FAIR      66  43  43 E14       30.19R
PINE BLUFFS    FAIR      64  36  34 SE15G21   30.25S

$$




USA.gov is the U.S. government's official web portal to all federal, state and local government web resources and services.